SCATSAT 1 (41790 NORAD) Tracking and Keplerian Element Data

This shows tracking and keplerian element data for the satellite.

Feedback or suggestion? Click here.




ElementValue
Catalog41790
NameSCATSAT 1
Epoch Orbit9561
Epoch Day198.72648153
Epoch Year2018
RAAN245.9587
Inclination98.2573
Eccentricity0.0018312
Argument of Perigee2.2646
Mean Anonmoly357.8628
Mean Motion14.50861943
Decay Rate-5E-08
L11 41790U 16059H 18198.72648153 -.00000005 00000-0 10027-4 0 9995
L22 41790 98.2573 245.9587 0018312 2.2646 357.8628 14.50861943 95613

Live tracking and technical data element details for SCATSAT 1 (NORAD 41790). SCATSAT 1 can be tracked NOW for your location showing map with azimuth and elevation plus other details from your city location.

Track the satellite on the map from your city or location and see movement details for azimuth, elevation, latitude, longitude, range, height, and movement on the map or in text.







IsCatalogInMostPopularTable: catalog: 41790, numindb: 79
Update: records affected: 1



GetName: 41790 SCATSAT 1

Hit Count: updated at: Fri, 20 Jul 2018 02:38:19 GMT